Flag for Algeria Weather past 2 weeks in Oran, Algeria

Now
90 °F

Sunny.


Feels Like: 88 °F
Forecast: 70 / 83 °F
Wind: 5 mph from Southwest

Location: Oran / Es Senia

Current Time: Aug 21, 2014 at 11:18:32 AM

Latest Report: Aug 21, 2014 at 10:30 AM


Visibility: 10 mi

Pressure: 30.01 "Hg

Humidity: 31%

Dew point: 55 °F

Location of OranLocation

Historic Weather in Oran — Graph

°F

Oran temperature yesterday

Maximum temperature yesterday: 93 °F (at 2:00 PM)
Minimum temperature yesterday: 66 °F (at 3:00 AM)
Average temperature yesterday: 78 °F

Past Weeks' High & Low Weather Summary

 TemperatureHumidityPressure
High99 °F (Aug 13, 2:30 PM)94% (Aug 8, 2:00 AM)30.07 "Hg (Aug 8, 2:00 AM)
Low63 °F (Aug 7, 5:00 AM)20% (Aug 11, 12:30 PM)29.80 "Hg (Aug 9, 5:00 PM)
Average79 °F70%29.95 "Hg
* Reported Aug 6 10:00 AM — Aug 21 10:00 AM, Oran, Weather by CustomWeather, © 2014

Note: Actual official high and low records may vary slightly from our data, if they occured in-between our weather recording intervals... More about our weather records

Advertising

Oran weather history for previous 24 hours

 ConditionsComfort  
Time TempWeatherWind HumidityBarometerVisibility
10:00 AM
Aug 21
84 °FSunny.3 mph37%30.01 "Hg10 mi
9:30 AM84 °FSunny.1 mph37%30.01 "Hg10 mi
9:00 AM75 °FSunny.2 mph50%30.01 "Hg10 mi
8:30 AM72 °FSunny.1 mph73%30.01 "Hg10 mi
8:00 AM72 °FSunny.1 mph73%30.01 "Hg10 mi
7:30 AM64 °FSunny.1 mph94%29.98 "Hg10 mi
7:00 AM64 °FSunny.1 mph94%29.98 "Hg10 mi
5:30 AM64 °FClear.5 mph94%29.98 "Hg10 mi
4:30 AM64 °FClear.3 mph94%29.98 "Hg10 mi
4:00 AM64 °FClear.1 mph94%29.98 "Hg10 mi
3:30 AM66 °FClear.No wind94%29.98 "Hg10 mi
2:30 AM64 °FClear.3 mph94%29.98 "Hg10 mi
2:00 AM66 °FClear.No wind94%29.98 "Hg10 mi
1:30 AM66 °FClear.3 mph94%29.98 "Hg10 mi
12:30 AM68 °FClear.5 mph94%29.98 "Hg10 mi
12:00 AM68 °FClear.7 mph94%29.98 "Hg10 mi
11:30 PM
Aug 20
70 °FClear.2 mph94%29.98 "Hg10 mi
11:00 PM72 °FClear.1 mph88%29.98 "Hg10 mi
10:30 PM73 °FClear.No wind83%29.98 "Hg10 mi
9:30 PM75 °FClear.7 mph83%29.98 "Hg10 mi
9:00 PM79 °FClear.7 mph79%29.98 "Hg10 mi
8:30 PM79 °FClear.7 mph79%29.98 "Hg10 mi
8:00 PM79 °FClear.3 mph79%29.98 "Hg10 mi
7:30 PM81 °FSunny.5 mph74%29.98 "Hg10 mi
7:00 PM82 °FSunny.1 mph70%29.98 "Hg10 mi
6:30 PM84 °FSunny.8 mph62%29.98 "Hg10 mi
6:00 PM84 °FSunny.6 mph62%29.98 "Hg10 mi
5:30 PM84 °FSunny.7 mph62%29.98 "Hg10 mi
5:00 PM86 °FSunny.12 mph59%29.98 "Hg10 mi
4:30 PM86 °FSunny.7 mph59%29.98 "Hg10 mi
4:00 PM88 °FSunny.7 mph55%29.98 "Hg10 mi
3:30 PM88 °FSunny.No wind49%29.95 "Hg10 mi
3:00 PM90 °FSunny.8 mph46%29.95 "Hg10 mi
2:30 PM90 °FSunny.9 mph46%29.98 "Hg10 mi
2:00 PM93 °FSunny.12 mph41%29.98 "Hg10 mi
1:30 PM91 °FSunny.No wind46%29.98 "Hg10 mi
1:00 PM90 °FSunny.7 mph49%30.01 "Hg10 mi
12:30 PM90 °FSunny.7 mph49%30.01 "Hg10 mi
12:00 PM91 °FSunny.7 mph46%30.01 "Hg10 mi
11:30 AM90 °FSunny.10 mph43%30.01 "Hg10 mi
11:00 AM88 °FSunny.9 mph46%30.01 "Hg10 mi
Weather by CustomWeather, © 2014

See weather overviewHow to use our weather pages